Location: Klickitat County Star Party
(45.8642°N, 120.6771°W)
Time: 18:07:02
(UTC-07:00)

SO-50 - Visible Passes

Search period start: 26 May 2019 00:00
Search period end: 05 June 2019 00:00
Orbit: 586 x 701 km, 64.6° (Epoch: 25 May)

Date Brightness Start Highest point End Pass type
(mag) Time Alt. Az. Time Alt. Az. Time Alt. Az.
26 May ? 00:39:04 10° N 00:41:53 15° NNE 00:44:40 10° ENE visible
26 May ? 02:18:38 10° NNW 02:23:29 53° NE 02:28:10 10° SE visible
26 May ? 03:59:44 10° WNW 04:03:38 24° WSW 04:07:11 11° SSW visible
27 May ? 01:03:42 10° NNW 01:07:38 23° NE 01:11:29 10° E visible
27 May ? 02:43:44 10° NW 02:48:38 75° WSW 02:52:01 19° SSE visible
27 May ? 04:27:36 10° W 04:28:12 10° WSW 04:28:49 10° WSW visible
27 May ? 23:49:10 10° N 23:51:18 13° NNE 23:53:26 10° NE visible
28 May ? 01:28:30 10° NNW 01:33:09 40° NE 01:37:25 11° ESE visible
28 May ? 03:09:10 10° NW 03:13:33 34° WSW 03:14:57 28° SSW visible
29 May ? 00:13:39 10° NNW 00:17:09 19° NNE 00:20:34 10° ENE visible
29 May ? 01:53:28 10° NW 01:58:25 79° NE 02:00:41 32° SE visible
29 May ? 03:35:27 10° WNW 03:38:14 15° WSW 03:38:14 15° WSW visible
29 May ? 22:59:25 10° N 23:00:41 11° NNE 23:01:58 10° NNE visible
30 May ? 00:38:23 10° NNW 00:42:45 31° NE 00:46:36 12° E visible
30 May ? 02:18:44 10° NW 02:23:27 48° WSW 02:24:10 44° SSW visible
30 May ? 23:23:40 10° N 23:26:36 15° NNE 23:29:31 10° ENE visible
31 May ? 01:03:16 10° NNW 01:08:08 57° NE 01:10:15 31° ESE visible
31 May ? 02:44:30 10° WNW 02:47:50 22° WSW 02:47:50 22° WSW visible
31 May ? 23:48:18 10° NNW 23:52:19 24° NE 23:56:16 10° E visible
01 Jun ? 01:28:23 10° NW 01:33:16 69° WSW 01:34:02 58° S visible
01 Jun ? 22:33:43 10° N 22:36:02 13° NNE 22:38:19 10° NE visible
02 Jun ? 00:13:06 10° NNW 00:17:49 42° NE 00:20:18 24° ESE visible
02 Jun ? 01:53:53 10° NW 01:57:54 31° WSW 01:57:54 31° WSW visible
02 Jun ? 22:58:15 10° NNW 23:01:50 20° NNE 23:05:23 10° E visible
03 Jun ? 00:38:07 10° NW 00:43:04 85° NE 00:44:15 52° SE visible
03 Jun ? 02:20:22 10° WNW 02:21:52 13° W 02:21:52 13° W visible
03 Jun ? 21:43:54 10° N 21:45:25 11° NNE 21:46:56 10° NE visible
03 Jun ? 23:22:59 10° NNW 23:27:26 32° NE 23:30:41 16° E visible
04 Jun ? 01:03:24 10° NW 01:08:03 44° WSW 01:08:16 44° SW visible
04 Jun ? 22:08:14 10° N 22:11:19 16° NNE 22:14:22 10° ENE visible
04 Jun ? 23:47:54 10° NNW 23:52:47 62° NE 23:54:44 34° ESE visible
